SCP
5 4 3 3 3 2 2 2 2 2 2 2 2 2 3 2 2 1 1 1 1 1 1 2 2 2 2 2 2 1 1 1 1 1 1 1 1 1 1 1 1 1 1
5 5 4 3 3 3 2 2 2 2 2 2 2 2 3 2 1 1 2 2 1 1 1 2 2 2 2 2 2 2 1 1 2 2 1 1 1 1 1 1 1 1 1
5 5 4 3 3 3 3 3 3 3 2 2 2 3 3 2 1 1 1 1 2 2 2 1 1 1 2 2 2 2 2 2 2 2 2 1 1 1 1 1 1 1 2
6 5 5 4 4 4 3 3 3 3 3 3 3 3 3 2 1 1 1 1 2 2 1 1 1 1 1 2 2 2 2 3 3 3 2 2 1 1 1 1 1 1 2
6 7 6 6 5 4 4 4 4 4 4 4 4 3 3 2 1 1 1 1 1 2 1 1 1 1 2 2 2 2 3 4 4 3 3 2 1 1 1 1 2 2 2
7 7 7 7 6 5 4 4 4 4 3 3 4 4 3 2 2 1 1 1 1 2 1 1 2 2 2 2 2 2 3 4 4 4 4 3 2 2 2 2 2 2 2
6 6 7 7 6 6 5 5 4 4 3 3 3 3 3 3 2 2 1 1 1 1 1 2 2 2 2 2 3 3 3 4 4 4 4 4 3 3 3 3 2 2 3
5 5 6 6 7 6 5 4 4 4 4 4 4 3 3 3 2 2 1 1 1 1 1 1 2 2 2 2 3 3 4 4 4 4 4 4 3 3 3 3 3 2 2
5 5 5 6 6 6 5 5 5 5 5 5 4 3 3 3 3 2 1 1 2 2 1 1 1 1 1 2 3 3 4 4 4 4 3 3 2 2 2 3 3 2 2
5 5 5 5 5 5 5 5 5 5 5 4 3 3 3 3 3 2 1 1 2 2 2 2 2 1 2 2 2 3 4 5 5 4 3 2 2 2 2 2 2 2 2
5 5 5 5 5 5 5 6 6 6 5 4 3 3 3 3 3 2 2 2 2 2 3 3 3 2 2 2 3 3 4 4 4 4 3 2 2 2 2 2 2 2 3
6 6 5 5 5 5 6 6 6 6 5 4 4 4 5 5 4 4 3 2 2 3 3 4 3 3 3 3 3 2 2 2 3 3 3 2 2 2 2 1 1 1 2
7 6 5 5 6 7 7 7 6 6 5 5 5 6 6 6 5 4 3 2 2 3 4 4 4 3 3 3 3 2 1 2 2 2 2 1 1 1 1 1 1 1 1
7 6 5 5 7 8 8 7 6 6 5 4 5 5 4 4 4 3 3 3 3 3 4 4 4 4 4 4 3 2 1 1 1 1 1 1 1 1 1 1 1 1 1
5 5 5 6 8 9 9 7 6 5 4 3 3 3 2 2 2 2 2 2 2 3 4 5 5 5 5 4 2 2 1 1 1 1 0 0 0 1 1 1 1 1 1
5 5 6 7 9 10 9 7 5 3 2 2 2 2 2 1 1 1 1 1 1 2 4 5 5 5 5 3 3 2 1 1 1 1 0 0 0 1 1 1 1 1 1
5 6 7 8 9 9 8 6 5 3 1 1 1 1 1 1 1 0 0 0 0 1 2 4 4 4 4 3 3 2 2 1 1 1 1 1 1 1 1 1 1 1 1
6 6 7 8 9 8 7 6 5 3 2 1 0 0 0 0 0 0 0 0 0 0 1 2 2 2 2 2 2 2 2 1 1 1 1 1 1 1 1 1 1 1 1
5 6 7 8 8 7 6 6 5 4 3 2 1 1 0 0 0 0 0 0 0 0 0 1 1 1 1 1 2 2 1 1 1 1 0 0 1 1 1 1 1 1 0
4 5 5 6 7 7 6 6 5 4 3 3 2 1 1 0 0 0 0 0 1 0 0 0 0 1 1 1 2 2 1 1 1 1 0 0 0 1 1 0 0 0 0
3 4 4 5 6 7 7 6 6 5 4 4 3 2 1 1 1 1 1 1 1 1 0 0 0 0 1 1 2 2 1 1 1 1 1 1 1 1 0 0 0 0 0
2 3 3 4 5 6 7 7 6 5 4 4 3 2 1 1 1 1 1 1 1 1 1 0 0 0 1 1 1 1 1 1 1 1 1 1 1 1 1 0 0 0 0
2 2 2 3 4 6 7 7 6 5 4 4 3 2 1 1 1 1 1 1 1 1 1 1 1 1 1 1 1 1 1 1 1 1 1 1 1 1 1 1 0 0 0
2 2 1 2 4 5 6 7 6 6 5 4 3 2 1 1 1 1 1 1 1 1 1 1 1 1 1 1 1 1 0 0 1 1 1 1 1 0 0 1 1 0 0
3 2 2 3 3 5 5 5 6 6 7 6 4 3 2 1 1 1 1 1 1 1 1 1 1 1 1 0 0 0 0 0 0 0 0 0 0 0 0 0 0 0 0
3 3 3 3 4 4 4 4 5 6 7 7 5 3 2 2 1 1 1 1 1 1 1 1 1 0 0 0 0 0 0 0 0 0 0 0 0 0 0 0 0 0 0
Wind_Speed
6 6 4 4 4 3 3 3 3 2 2 2 2 2 2 1 1 1 1 0 0 1 1 0 1 1 0 1 0 0 0 1 2 2 2 1 1 1 2 1 1 1 1
7 5 5 4 4 3 3 3 3 2 2 2 2 2 2 1 1 1 1 1 1 1 1 1 1 1 1 1 0 1 1 1 2 2 2 1 1 1 1 1 1 1 1
6 6 5 4 4 4 4 3 3 3 2 2 2 2 2 2 2 2 2 1 1 2 1 1 1 0 1 1 1 1 1 1 1 1 1 1 1 1 1 1 1 1 2
6 6 6 5 5 5 4 3 3 3 2 2 2 3 3 2 2 2 2 1 1 1 1 1 1 1 2 2 1 1 1 0 0 0 1 1 1 1 0 1 2 2 2
7 7 7 6 5 4 4 3 3 3 3 2 2 2 2 2 2 2 2 2 2 1 1 1 1 1 2 1 1 1 1 1 1 1 1 1 1 1 1 1 1 2 2
7 7 6 5 5 5 4 3 3 3 2 2 3 3 2 2 2 3 3 2 2 2 2 2 1 1 1 1 1 1 1 2 2 2 1 1 2 2 1 1 1 1 3
6 6 5 6 5 5 5 3 4 3 3 2 3 3 3 3 3 3 4 3 3 2 2 2 2 1 1 1 2 2 2 2 3 3 3 3 3 3 2 2 2 2 3
4 5 5 5 5 4 4 4 4 3 3 3 3 3 3 3 3 4 4 3 2 2 3 3 2 2 2 1 1 2 2 3 3 3 4 5 4 3 4 3 3 2 2
4 4 5 6 5 5 5 4 4 3 3 3 3 3 3 3 3 3 3 2 2 3 3 3 3 2 3 2 1 2 3 4 4 3 4 4 3 3 2 1 1 0 2
4 5 5 5 5 5 5 4 3 3 3 3 2 2 3 3 4 4 3 2 2 2 2 3 3 3 4 3 2 3 3 4 3 3 3 3 2 2 2 3 3 2 1
3 3 4 5 5 5 4 3 3 3 3 2 2 2 3 4 4 5 4 2 3 3 3 3 3 4 4 4 3 4 5 4 2 2 2 2 1 1 1 1 2 2 2
2 2 3 3 4 4 3 3 3 4 3 3 2 2 2 3 4 4 5 5 4 3 4 3 3 5 4 4 3 4 4 2 1 1 1 1 1 2 2 2 2 2 2
1 1 2 2 3 3 4 4 3 3 3 3 3 3 2 2 3 4 4 5 5 3 3 4 4 5 4 3 4 4 2 1 1 1 2 2 2 2 1 1 1 1 2
0 1 1 2 2 2 3 3 3 4 3 3 3 3 3 2 2 2 2 2 3 3 2 3 4 4 3 3 3 2 1 2 2 2 2 2 1 1 1 1 0 1 1
0 1 1 2 3 3 2 3 3 4 5 5 4 4 4 4 5 5 4 3 3 2 1 1 1 1 1 1 1 1 1 1 1 1 1 1 1 1 1 1 1 0 0
1 2 1 1 2 2 2 0 1 2 3 5 5 5 4 6 5 5 6 5 4 3 2 1 2 2 2 2 1 1 1 1 2 1 1 1 1 1 1 1 1 1 1
1 2 2 2 2 2 2 3 2 2 2 2 4 5 5 5 5 5 4 3 3 4 2 2 2 2 2 2 2 2 2 2 1 1 1 1 1 1 1 1 1 1 2
2 3 3 2 2 2 3 3 3 3 2 2 2 3 4 4 4 4 3 2 1 1 2 3 3 2 2 2 2 2 2 2 1 1 1 1 1 1 1 1 1 1 2
2 2 2 2 2 2 2 2 2 3 3 2 1 2 2 2 2 2 4 2 3 3 3 3 3 3 2 2 2 2 2 2 2 2 2 2 1 1 1 2 2 2 2
2 3 3 2 1 2 2 2 2 3 3 2 3 2 1 1 1 2 3 3 3 3 3 3 3 3 3 2 2 2 2 1 1 1 2 2 2 1 2 2 2 2 2
2 2 3 2 1 1 2 2 2 3 3 3 3 3 4 3 4 4 4 4 4 4 4 3 3 3 2 2 2 2 2 2 2 2 1 2 2 2 2 2 2 2 2
1 1 1 2 2 1 2 2 2 2 3 3 2 2 4 3 3 3 4 4 4 3 3 3 3 3 3 3 3 3 3 3 2 2 2 2 2 2 1 1 1 1 1
1 2 2 2 2 3 2 2 3 3 3 3 3 2 3 3 3 3 3 3 2 2 2 2 2 2 2 2 3 4 4 4 4 3 3 2 2 2 2 2 2 2 1
2 2 2 2 2 2 2 3 3 3 3 2 2 2 3 3 3 3 3 2 2 2 2 2 2 3 3 2 1 2 2 2 3 3 4 3 2 2 2 2 2 2 2
2 2 2 2 2 2 2 2 3 3 3 2 2 2 2 2 2 2 1 1 1 1 1 1 2 2 2 2 2 1 2 2 2 2 2 2 2 2 2 2 1 1 1
2 2 2 2 2 2 2 3 3 3 2 2 2 2 2 2 2 1 1 1 1 1 1 0 0 1 1 1 1 1 1 1 1 1 1 1 1 1 1 1 1 1 1
Wind_Direction
188 192 193 189 185 182 191 206 208 209 196 192 193 173 184 194 189 171 208 203 170 292 311 355 292 296 338 330 328 29 158 164 223 281 279 287 291 301 325 320 313 295 279
190 185 190 186 177 184 200 211 205 203 201 197 178 170 183 190 194 186 209 240 204 241 278 303 292 304 324 296 295 284 257 208 192 253 288 296 274 271 270 297 321 328 303
178 179 184 186 187 199 206 208 204 202 202 188 162 168 185 193 195 196 192 212 215 219 230 229 256 242 302 290 281 275 265 277 197 196 264 284 294 305 327 318 333 329 316
175 178 184 193 195 200 204 204 204 197 189 185 177 183 187 188 191 196 194 205 223 237 230 222 239 221 240 260 269 267 256 258 206 181 257 287 294 295 29 320 326 328 315
178 187 195 198 194 191 196 202 201 195 196 183 178 190 195 194 206 199 197 198 203 225 252 244 247 256 262 247 265 253 220 204 203 211 251 303 298 298 266 272 294 309 309
181 195 196 190 190 194 200 199 191 193 191 175 185 191 207 229 220 200 186 198 198 199 229 257 266 270 292 313 323 295 207 195 204 208 227 239 257 242 230 229 270 329 305
185 192 190 189 192 199 198 190 194 195 186 190 202 196 210 227 213 205 194 190 203 214 220 234 268 296 284 282 307 326 314 263 207 200 218 235 234 224 203 221 232 239 259
180 186 184 184 190 190 187 193 196 187 188 202 208 205 209 236 218 210 200 198 210 227 225 215 224 261 266 253 261 293 291 286 261 230 224 237 236 225 205 204 212 239 292
179 187 188 185 187 189 195 201 194 181 190 203 204 202 206 238 226 218 206 196 214 240 242 236 227 240 266 249 228 263 286 290 288 273 252 253 246 231 208 148 154 111 308
198 196 189 182 183 190 198 197 186 181 197 200 211 214 211 229 237 233 217 191 217 248 260 253 242 248 262 250 225 229 257 276 294 308 306 297 272 239 196 184 186 185 251
210 192 190 188 191 193 191 179 170 178 183 189 208 229 223 228 239 239 226 207 215 232 243 253 251 247 254 258 241 230 242 258 273 273 282 300 316 286 238 220 204 190 204
192 176 194 199 196 184 170 175 174 173 179 200 213 238 245 240 235 241 236 230 226 229 245 248 250 246 246 256 257 264 257 259 256 278 286 284 281 271 264 256 255 241 226
140 187 205 203 195 180 177 184 184 185 191 207 209 226 251 261 255 247 240 242 239 237 251 255 263 261 260 264 269 274 265 224 214 235 253 255 253 258 279 304 311 313 313
132 244 216 200 202 192 184 188 191 198 205 207 211 220 234 245 249 253 255 255 257 255 268 272 273 270 269 280 294 294 254 226 214 227 247 257 271 305 299 279 268 315 342
221 252 235 219 203 198 200 204 202 208 206 202 212 210 212 233 241 230 220 232 226 228 225 296 297 307 311 311 305 292 282 295 264 263 245 264 274 280 284 298 285 309 269
222 262 242 234 222 199 190 259 330 222 227 221 218 211 224 234 239 230 229 229 227 203 162 219 249 251 245 241 251 273 270 256 258 250 242 241 252 257 265 292 295 233 251
232 256 255 239 225 206 194 197 230 299 313 258 241 232 226 223 218 216 219 220 212 172 180 223 234 233 231 224 227 236 246 244 242 235 238 246 249 253 246 242 256 277 272
265 261 255 237 221 216 210 210 208 213 247 275 278 258 242 225 213 208 193 142 134 188 217 224 231 231 225 222 228 231 238 241 234 238 238 245 244 245 253 254 245 246 264
282 272 270 255 233 223 215 207 212 213 217 232 270 291 261 224 203 200 163 172 200 222 231 235 233 229 226 224 228 223 219 227 230 233 241 245 239 225 249 258 258 259 263
285 289 292 274 248 222 212 205 218 214 213 218 225 228 190 147 179 206 203 212 217 228 230 231 232 229 220 214 209 213 223 230 235 239 250 248 244 228 232 245 254 260 262
284 293 297 295 245 218 210 205 217 217 212 217 226 217 186 192 208 212 213 218 222 226 227 226 226 227 219 206 199 200 205 222 232 238 238 243 239 241 243 240 247 254 265
251 257 270 263 248 228 223 220 210 216 218 216 219 206 194 204 213 216 219 224 226 228 225 219 220 219 214 204 195 196 205 220 231 237 241 245 246 243 242 240 251 260 269
243 240 244 252 243 232 227 219 212 209 221 218 203 197 200 218 225 220 220 224 225 225 228 220 214 224 226 214 205 203 207 219 224 219 224 238 239 234 230 232 237 243 264
240 237 231 243 246 237 229 228 222 209 207 213 208 200 201 212 220 224 222 218 217 231 234 221 206 202 212 222 226 220 216 220 221 220 216 217 222 226 222 223 234 240 248
230 233 234 237 238 237 228 224 219 211 207 211 212 203 203 205 211 219 218 206 190 215 229 216 208 203 202 199 201 220 216 196 201 219 218 204 209 213 214 220 235 262 268
224 226 234 235 229 227 217 210 215 211 204 202 196 194 199 193 190 197 195 184 163 162 188 220 156 137 147 167 184 176 171 168 179 192 192 178 184 207 204 221 237 245 253